Regional Weather Roundup
Issued by NWS

Home | Current Version | Previous Version | Graphics & Text | Print | Product List | Glossary On
Versions: 1 2 3 4 5 6 7 8 9 10 11 12 13 14 15 16 17 18 19 20 21 22 23 24 25 26 27 28 29 30 31 32 33 34 35 36 37 38 39 40 41 42 43 44 45 46 47 48 49 50
000
ASUS45 KSLC 040810
RWRUT

UTAH REGIONAL WEATHER ROUNDUP
NATIONAL WEATHER SERVICE SALT LAKE CITY UT
200 AM MDT FRI SEP 04 2015

UTZ001>011-023>025-040900-

NORTHERN UTAH

CITY           SKY/WX    TMP DP  RH WIND       PRES   REMARKS
BRIGHAM CITY   MOCLDY    70  39  31 S5        29.80S
HILL AFB       MOCLDY    73  37  26 SE14      29.83R
LOGAN          CLEAR     57  49  74 NW6       29.81S
OGDEN          PTCLDY    75  36  24 S17       29.80R
PROVO AIRPORT  CLEAR     68  36  30 SE9       29.87S
SALT LAKE CITY PTCLDY    76  35  22 S18       29.80R
VERNAL         PTCLDY    60  41  49 NW6       29.94R
WENDOVER       PTCLDY    66  36  32 SW7       29.81R
HEBER CITY     CLEAR     70  30  23 S3        29.93S
WEST JORDAN    CLEAR     73  36  25 S17       29.84S

$$

UTZ012>022-026-027-040900-

SOUTHERN/CENTRAL UTAH

CITY           SKY/WX    TMP DP  RH WIND       PRES   REMARKS
BLANDING       MOCLDY    64  48  57 E3        30.15R
BRYCE CANYON   CLEAR     45  34  65 CALM      30.16S
CEDAR CITY     CLEAR     68  29  23 S10       29.99S
DELTA          CLEAR     64  32  29 S9        29.89S
HANKSVILLE     PTCLDY    72  36  26 S3        29.93R
MILFORD        CLEAR     64  31  28 S14       29.93R
MOAB/CYNLANDS  PTCLDY    66  37  34 CALM      29.90R
PRICE          CLEAR     61  35  37 CALM      29.99R
ST GEORGE      SUNNY     75  34  22 CALM      29.84S
KANAB          CLEAR     59  43  55 CALM      30.05R

$$

REGIONAL REPORTS     COLORADO/ARIZONA

CITY           SKY/WX    TMP DP  RH WIND       PRES   REMARKS
CRAIG, CO      CLEAR     51  44  77 CALM      30.05F
GRAND JUNCTION CLEAR     66  50  56 E17       29.96R
RIFLE          CLEAR     54  50  86 CALM      30.04S
MONTROSE       PTCLDY    60  47  61 SE7       30.07S
CORTEZ         PTCLDY    61  44  53 NE8       30.09R
PAGE, AZ       PTCLDY    73  52  47 W7        29.97R
GRAND CANYON   NOT AVBL
KINGMAN        CLEAR     73  56  54 SE12G22   29.92R
FLAGSTAFF      CLOUDY    56  54  93 W6        30.19F

$$

REGIONAL REPORTS    NEVADA/IDAHO/WYOMING

CITY           SKY/WX    TMP DP  RH WIND       PRES   REMARKS
LAS VEGAS, NV  CLEAR     84  34  16 SE7       29.73R
ELY            CLEAR     63  27  25 S17       29.94S
ELKO           CLEAR     54  34  46 CALM      29.87R
POCATELLO, ID  CLEAR     55  41  59 SW13      29.87S
BURLEY         PTCLDY    53  39  59 SW7       29.85F
EVANSTON, WY   CLEAR     59  28  30 SW13      30.01S
ROCK SPRINGS   CLEAR     60  36  40 S8        30.01S
KEMMERER       PTCLDY    57  28  33 S3        30.03S

$$


USA.gov is the U.S. government's official web portal to all federal, state and local government web resources and services.